Houghton, MI

10:31 AM EDT on October 17, 2017 (GMT -0400)
Houghton County Memorial

Weather History for KCMX - February, 2014

Change the Weather History Date:

Saturday, February 22, 2014

  Actual Average Record
Temperature  
Mean Temperature 12 °F -  
Max Temperature 15 °F 28 °F 55 °F (1961)
Min Temperature 8 °F 12 °F -15 °F (1965)
Degree Days  
Heating Degree Days 54    
Moisture  
Dew Point 5 °F    
Average Humidity 76    
Maximum Humidity 85    
Minimum Humidity 70    
Precipitation  
Precipitation 0.50 in - - ()
Sea Level Pressure  
Sea Level Pressure 29.63 in    
Wind  
Wind Speed 30 mph (West)    
Max Wind Speed 37 mph    
Max Gust Speed 50 mph    
Visibility 1 miles    
Events Fog , Snow    
Averages and records for this station are not official NWS values.
T = Trace of Precipitation, MM = Missing Value Source: NWS Daily Summary

Daily Weather History Graph

Daily Weather History Graph

Search for Another Location

Airport or City:

Trip Planner

Search our weather history database for the weather conditions in past years. The results will help you decide how hot, cold, wet, or windy it might be!

Date:

Astronomy

Feb. 22, 2014 Rise Set
Actual Time 7:46 AM EST 6:28 PM EST
Civil Twilight 7:15 AM EST 6:59 PM EST
Nautical Twilight 6:40 AM EST 7:35 PM EST
Astronomical Twilight 6:05 AM EST 8:10 PM EST
Moon 1:51 AM EST (2/22) 11:29 AM EST (2/22)
Length of Visible Light 11h 44m
Length of Day
10h 42m
Waning Gibbous, 50% of the Moon is Illuminated
Feb 22
Waning Gibbous
Feb 22
Last Quarter
Mar 1
New
Mar 8
First Quarter
Mar 16
Full

Hourly Weather History & Observations

Time (EST) Temp. Windchill Dew Point Humidity Pressure Visibility Wind Dir Wind Speed Gust Speed Precip Events Conditions
1:53 AM 9.0 °F -14.0 °F 3.0 °F 77% 29.44 in 0.5 mi West 31.1 mph 41.4 mph 0.03 in Snow Snow
2:53 AM 8.1 °F -16.2 °F 1.9 °F 76% 29.47 in 0.5 mi West 34.5 mph 44.9 mph 0.03 in Snow Snow
3:53 AM 8.1 °F -15.5 °F 1.9 °F 76% 29.48 in 0.5 mi West 32.2 mph 44.9 mph 0.02 in Snow Snow
4:49 AM 8.6 °F -14.8 °F 1.4 °F 73% 29.43 in 0.2 mi West 32.2 mph 42.6 mph 0.02 in Snow Heavy Snow
4:53 AM 8.1 °F -15.9 °F 1.9 °F 76% 29.50 in 0.2 mi West 33.4 mph 43.7 mph 0.02 in Snow Heavy Snow
5:08 AM 8.6 °F -14.5 °F 1.4 °F 73% 29.43 in 0.5 mi West 31.1 mph 44.9 mph 0.00 in Snow Snow
5:53 AM 8.1 °F -15.2 °F 1.9 °F 76% 29.52 in 0.5 mi West 31.1 mph 43.7 mph 0.02 in Snow Snow
6:49 AM 8.6 °F -14.8 °F 3.2 °F 79% 29.48 in 0.2 mi West 32.2 mph 42.6 mph 0.05 in Snow Heavy Snow
6:53 AM 8.1 °F -14.9 °F 3.0 °F 80% 29.54 in 0.2 mi West 29.9 mph 42.6 mph 0.05 in Snow Heavy Snow
7:53 AM 8.1 °F -14.9 °F 1.9 °F 76% 29.57 in 0.2 mi West 29.9 mph 38.0 mph 0.04 in Snow Heavy Snow
8:53 AM 8.1 °F -16.2 °F 1.9 °F 76% 29.59 in 0.2 mi West 34.5 mph 49.5 mph 0.05 in Snow Heavy Snow
9:53 AM 9.0 °F -15.5 °F 3.0 °F 77% 29.60 in 0.2 mi West 36.8 mph 48.3 mph 0.01 in Snow Heavy Snow
10:53 AM 10.0 °F -14.0 °F 3.0 °F 73% 29.63 in 0.2 mi West 36.8 mph 48.3 mph 0.00 in Snow Heavy Snow
11:53 AM 10.9 °F -9.2 °F 6.1 °F 81% 29.64 in 0.2 mi West 24.2 mph 34.5 mph 0.03 in Snow Heavy Snow
12:53 PM 10.9 °F -11.3 °F 5.0 °F 77% 29.66 in 0.2 mi West 31.1 mph 42.6 mph 0.03 in Snow Heavy Snow
1:06 PM 10.4 °F -11.4 °F 3.2 °F 73% 29.59 in 0.5 mi West 28.8 mph 40.3 mph 0.00 in Snow Snow
1:53 PM 10.9 °F -11.0 °F 3.0 °F 70% 29.68 in 0.8 mi West 29.9 mph 42.6 mph 0.00 in Snow Light Snow
2:22 PM 10.4 °F -9.9 °F 3.2 °F 73% 29.61 in 1.2 mi West 24.2 mph 35.7 mph 0.00 in Snow Light Snow
2:35 PM 10.4 °F -9.5 °F 3.2 °F 73% 29.61 in 0.8 mi West 23.0 mph 35.7 mph 0.00 in Snow Light Snow
2:49 PM 10.4 °F -9.9 °F 3.2 °F 73% 29.61 in 0.8 mi West 24.2 mph 38.0 mph 0.00 in Snow Light Snow
2:53 PM 10.9 °F -9.2 °F 3.9 °F 73% 29.68 in 0.8 mi West 24.2 mph 38.0 mph 0.01 in Snow Light Snow
3:53 PM 12.0 °F -5.6 °F 5.0 °F 73% 29.69 in 0.5 mi West 18.4 mph 39.1 mph 0.03 in Snow Snow
4:53 PM 12.9 °F -8.0 °F 6.1 °F 74% 29.70 in 0.8 mi West 28.8 mph 41.4 mph 0.03 in Snow Blowing Snow
5:15 PM 12.2 °F -9.3 °F 5.0 °F 73% 29.63 in 1.0 mi West 29.9 mph 40.3 mph 0.01 in   Mostly Cloudy
5:22 PM 12.2 °F -8.6 °F 5.0 °F 73% 29.63 in 0.8 mi West 27.6 mph 40.3 mph 0.01 in   Mostly Cloudy
5:53 PM 12.9 °F -7.6 °F 6.1 °F 74% 29.72 in 0.8 mi West 27.6 mph 41.4 mph 0.01 in   Overcast
6:03 PM 12.2 °F -8.2 °F 6.8 °F 79% 29.65 in 0.8 mi West 26.5 mph 39.1 mph 0.00 in   Overcast
6:50 PM 12.2 °F -8.2 °F 6.8 °F 79% 29.66 in 1.2 mi West 26.5 mph 40.3 mph 0.00 in   Overcast
6:53 PM 14.0 °F -7.1 °F 7.0 °F 74% 29.73 in 1.2 mi West 31.1 mph 41.4 mph 0.00 in   Overcast
7:31 PM 14.0 °F -6.5 °F 6.8 °F 73% 29.67 in 0.8 mi West 28.8 mph 43.7 mph 0.00 in Snow Light Snow
7:39 PM 14.0 °F -7.1 °F 6.8 °F 73% 29.67 in 1.2 mi West 31.1 mph 40.3 mph 0.01 in   Overcast
7:53 PM 14.0 °F -6.2 °F 7.0 °F 74% 29.75 in 1.2 mi West 27.6 mph 41.4 mph 0.02 in   Overcast
8:53 PM 15.1 °F -5.0 °F 8.1 °F 74% 29.76 in 1.0 mi West 28.8 mph 41.4 mph 0.02 in Snow Light Snow
8:56 PM 15.8 °F -5.0 °F 8.6 °F 73% 29.69 in 0.8 mi West 32.2 mph 41.4 mph 0.00 in Snow Light Snow
9:53 PM 14.0 °F -5.8 °F 8.1 °F 77% 29.78 in 0.8 mi West 26.5 mph 35.7 mph 0.00 in Snow Light Snow
10:38 PM 14.0 °F -6.2 °F 8.6 °F 79% 29.71 in 0.5 mi West 27.6 mph 38.0 mph 0.01 in Snow Snow
10:51 PM 14.0 °F -7.1 °F 8.6 °F 79% 29.71 in 0.2 mi West 31.1 mph 40.3 mph 0.02 in Snow Heavy Snow
10:53 PM 12.9 °F -7.3 °F 9.0 °F 84% 29.78 in 0.2 mi West 26.5 mph 40.3 mph 0.02 in Fog , Snow Snow
11:01 PM 12.2 °F -9.6 °F 8.6 °F 85% 29.71 in 0.5 mi West 31.1 mph 38.0 mph 0.01 in Snow Snow
11:23 PM 12.2 °F -8.6 °F 6.8 °F 79% 29.72 in 0.8 mi West 27.6 mph 38.0 mph 0.02 in Snow Light Snow
11:53 PM 12.0 °F -8.8 °F 7.0 °F 80% 29.79 in 0.8 mi West 27.6 mph 35.7 mph 0.03 in Snow Light Snow